TimeEDT,TemperatureF,Dew PointF,Humidity,Sea Level PressureIn,VisibilityMPH,Wind Direction,Wind SpeedMPH,Gust SpeedMPH,PrecipitationIn,Events,Conditions,WindDirDegrees,DateUTC
12:53 AM,57.0,48.9,74,29.89,10.0,North,6.9,-,N/A,,Scattered Clouds,10,2013-06-07 04:53:00
1:53 AM,55.9,48.9,77,29.89,10.0,North,5.8,-,N/A,,Clear,360,2013-06-07 05:53:00
2:53 AM,54.0,48.9,83,29.89,10.0,North,3.5,-,N/A,,Clear,350,2013-06-07 06:53:00
3:53 AM,53.1,48.9,86,29.88,10.0,North,5.8,-,N/A,,Clear,10,2013-06-07 07:53:00
4:48 AM,53.6,50.0,88,29.88,10.0,North,4.6,-,N/A,,Mostly Cloudy,10,2013-06-07 08:48:00
4:53 AM,53.1,50.0,89,29.88,10.0,NNE,5.8,-,N/A,,Mostly Cloudy,20,2013-06-07 08:53:00
5:00 AM,53.6,50.0,88,29.89,10.0,NNE,5.8,-,N/A,,Overcast,20,2013-06-07 09:00:00
5:22 AM,53.6,50.0,88,29.89,10.0,North,10.4,-,N/A,,Overcast,10,2013-06-07 09:22:00
5:53 AM,54.0,50.0,86,29.90,10.0,North,10.4,-,N/A,,Overcast,10,2013-06-07 09:53:00
6:04 AM,53.6,50.0,88,29.89,10.0,North,6.9,-,N/A,,Overcast,10,2013-06-07 10:04:00
6:53 AM,54.0,50.0,86,29.90,10.0,NNE,10.4,-,N/A,,Overcast,20,2013-06-07 10:53:00
7:53 AM,54.0,50.0,86,29.91,10.0,North,10.4,-,N/A,,Overcast,10,2013-06-07 11:53:00
8:53 AM,55.0,48.9,80,29.91,10.0,North,5.8,-,N/A,,Overcast,10,2013-06-07 12:53:00
9:53 AM,55.9,50.0,80,29.92,10.0,North,10.4,-,N/A,,Overcast,10,2013-06-07 13:53:00
10:53 AM,55.9,50.0,80,29.92,10.0,North,6.9,-,N/A,,Overcast,360,2013-06-07 14:53:00
11:53 AM,57.9,52.0,81,29.91,10.0,North,9.2,-,N/A,,Overcast,10,2013-06-07 15:53:00
12:53 PM,57.9,51.1,78,29.91,10.0,NNE,6.9,-,N/A,,Overcast,20,2013-06-07 16:53:00
1:43 PM,59.0,51.8,77,29.90,10.0,North,8.1,-,N/A,,Overcast,350,2013-06-07 17:43:00
1:53 PM,59.0,51.1,75,29.90,10.0,North,9.2,-,N/A,,Overcast,360,2013-06-07 17:53:00
2:53 PM,60.1,52.0,75,29.90,10.0,North,9.2,-,N/A,,Overcast,10,2013-06-07 18:53:00
3:53 PM,60.1,52.0,75,29.90,10.0,NNE,9.2,-,N/A,,Overcast,20,2013-06-07 19:53:00
4:53 PM,61.0,52.0,72,29.89,10.0,North,9.2,-,N/A,,Overcast,10,2013-06-07 20:53:00
5:53 PM,61.0,52.0,72,29.89,10.0,NNE,6.9,-,N/A,,Overcast,20,2013-06-07 21:53:00
6:42 PM,60.8,51.8,72,29.88,10.0,NNE,6.9,-,N/A,,Overcast,30,2013-06-07 22:42:00
6:53 PM,62.1,52.0,70,29.88,10.0,North,9.2,-,N/A,,Overcast,10,2013-06-07 22:53:00
7:32 PM,60.8,51.8,72,29.88,10.0,North,6.9,-,N/A,,Overcast,10,2013-06-07 23:32:00
7:53 PM,61.0,51.1,70,29.89,10.0,NNE,6.9,-,N/A,,Overcast,20,2013-06-07 23:53:00
8:53 PM,60.1,51.1,72,29.90,10.0,North,5.8,-,N/A,,Overcast,10,2013-06-08 00:53:00
9:07 PM,60.8,50.0,68,29.90,10.0,NNE,6.9,-,N/A,,Overcast,20,2013-06-08 01:07:00
9:53 PM,60.1,50.0,69,29.92,10.0,NNE,4.6,-,N/A,,Overcast,20,2013-06-08 01:53:00
10:53 PM,59.0,50.0,72,29.92,10.0,NNE,5.8,-,N/A,,Overcast,30,2013-06-08 02:53:00
11:53 PM,59.0,50.0,72,29.92,10.0,NNE,4.6,-,N/A,,Overcast,20,2013-06-08 03:53:00